Location: Sihaung
(22.8641°N, 94.0549°E)
Time: 12:40:10
(UTC+00:00)

Meteor 1-18 Rocket - Pass Details

Date: 03 March 2021
Orbit: 837 x 909 km, 81.2° (Epoch: 10 April)

Event Time Altitude Azimuth Distance (km) Brightness Sun altitude
Rises 12:47:22 0° 356° (N) 3,534 7.5 -14.4°
Reaches altitude 10° 12:49:52 10° 358° (N) 2,587 6.7 -15.0°
Maximum altitude 12:55:46 73° 83° (E) 937 4.2 -16.4°
Drops below altitude 10° 13:01:34 10° 168° (SSE) 2,545 6.6 -17.7°
Sets 13:03:59 0° 170° (S) 3,472 7.3 -18.3°
